Stations météo

réclame
Mon MeteoGroup
Porto Colom, Espagne (8309): Température de l'air & dewpoint: 09.08.2018 01:00:00 - 15.08.2018 01:00:00 (CEST)Porto Colom, Espagne (8309): Vitesse du vent & gusts: 09.08.2018 01:00:00 - 15.08.2018 01:00:00 (CEST)Porto Colom, Espagne (8309): Direction du vent: 09.08.2018 01:00:00 - 15.08.2018 01:00:00 (CEST)Porto Colom, Espagne (8309): reduced air pressure: 09.08.2018 01:00:00 - 15.08.2018 01:00:00 (CEST)Porto Colom, Espagne (8309): visibility: 09.08.2018 01:00:00 - 15.08.2018 01:00:00 (CEST)Porto Colom, Espagne (8309): Ensoleillement: 09.08.2018 01:00:00 - 15.08.2018 01:00:00 (CEST)Porto Colom, Espagne (8309): Quantités de précipitations: 09.08.2018 01:00:00 - 15.08.2018 01:00:00 (CEST)
Date & Time tt [°C] td [°C] ff [km/h] ff [knt] fx [km/h] fx [knt] dd ppp [hPa] vv [km] sd [min] rr [mm]
15.08.2018 01:00:00 - - - - - - - - - - -
15.08.2018 00:00:00 25,6 19,3 14 8 23 13 ENE 1017,5 20 0 0,0
14.08.2018 23:00:00 25,8 19,2 14 8 25 14 E 1017,3 20 0 0,0
14.08.2018 22:00:00 26,1 19,3 13 7 25 13 E 1016,9 20 0 0,0
14.08.2018 21:00:00 26,2 19,6 15 8 25 14 E 1016,2 20 17 0,0
14.08.2018 20:00:00 26,8 19,9 13 7 26 14 E 1015,7 20 18 -
14.08.2018 19:00:00 27,2 20,5 17 9 30 16 E 1015,6 20 27 0,0
14.08.2018 18:00:00 27,5 20,1 17 9 32 17 E 1015,9 20 32 0,0
14.08.2018 17:00:00 28,1 20,7 16 9 29 16 E 1015,8 20 34 0,0
14.08.2018 16:00:00 29,6 21,3 14 8 27 15 E 1015,8 20 58 0,0
14.08.2018 15:00:00 29,1 20,8 18 10 29 16 E 1015,6 20 48 0,0
14.08.2018 14:00:00 28,6 22,6 16 9 29 15 E 1016,0 20 48 -
14.08.2018 13:00:00 28,9 21,9 16 8 31 17 E 1016,0 20 51 0,0
14.08.2018 12:00:00 28,4 21,9 18 10 28 15 ENE 1015,9 19 60 0,0
14.08.2018 11:00:00 27,9 20,5 16 8 29 16 NNE 1015,0 20 60 0,0
14.08.2018 10:00:00 24,9 20,4 14 7 30 16 N 1014,6 20 19 0,0
14.08.2018 09:00:00 24,7 21,4 17 9 45 24 ENE 1013,3 16 0 1,0
14.08.2018 08:00:00 24,1 22,4 15 8 28 15 N 1015,4 3,9 0 -
14.08.2018 07:00:00 25,0 22,9 9 5 13 7 N 1014,4 20 0 0,0
14.08.2018 06:00:00 24,8 22,9 9 5 14 8 NNE 1013,8 20 0 0,0
14.08.2018 05:00:00 24,5 22,6 8 5 13 7 N 1012,9 20 0 0,0
14.08.2018 04:00:00 24,8 22,9 8 4 10 5 NNE 1013,0 20 0 0,0
14.08.2018 03:00:00 24,7 22,6 8 4 10 5 N 1013,2 20 0 0,0
14.08.2018 02:00:00 24,9 22,6 7 4 9 5 NNE 1013,1 20 0 -
14.08.2018 01:00:00 25,6 22,7 3 2 13 7 N 1013,1 20 0 0,0
14.08.2018 00:00:00 26,7 23,6 9 5 16 9 SSW 1012,9 20 0 0,0
13.08.2018 23:00:00 26,9 23,7 12 6 18 10 SSW 1012,5 20 0 0,0
13.08.2018 22:00:00 27,1 23,7 14 8 18 10 SSW 1012,0 20 0 0,0
13.08.2018 21:00:00 27,4 23,5 14 7 19 10 SSW 1011,7 16 6 0,0
13.08.2018 20:00:00 28,5 23,0 14 7 19 10 SSW 1011,3 20 54 -
13.08.2018 19:00:00 29,6 23,0 16 9 23 13 SSW 1011,4 20 60 0,0
13.08.2018 18:00:00 30,3 23,7 22 12 28 15 SSW 1011,8 17 60 0,0
13.08.2018 17:00:00 30,1 23,6 22 12 31 17 SSW 1012,3 20 60 0,0
13.08.2018 16:00:00 30,9 23,8 24 13 34 18 SSW 1012,8 17 60 0,0
13.08.2018 15:00:00 30,9 23,8 26 14 32 17 SSW 1013,0 19 50 0,0
13.08.2018 14:00:00 30,8 23,5 22 12 27 15 SSW 1013,7 20 60 -
13.08.2018 13:00:00 30,6 23,8 22 12 27 14 SSW 1014,0 20 60 0,0
13.08.2018 12:00:00 30,1 23,3 16 9 22 12 SSW 1014,1 20 21 0,0
13.08.2018 11:00:00 28,5 22,3 14 8 18 10 SSW 1013,9 20 47 0,0
13.08.2018 10:00:00 28,7 22,2 8 4 14 7 S 1013,2 19 59 0,0
13.08.2018 09:00:00 27,2 22,1 13 7 20 11 SSW 1013,0 20 28 0,0
13.08.2018 08:00:00 24,9 22,4 6 4 19 10 N 1013,0 20 0 -
13.08.2018 07:00:00 25,0 21,9 5 3 16 9 SW 1012,4 20 0 0,0
13.08.2018 06:00:00 24,5 22,6 4 2 8 5 SW 1013,1 20 0 0,0
13.08.2018 05:00:00 24,9 22,4 5 3 18 10 NNW 1014,2 20 0 0,0
13.08.2018 04:00:00 24,6 22,5 4 2 13 7 W 1014,3 20 0 0,0
13.08.2018 03:00:00 24,1 21,8 4 2 6 4 NNW 1014,2 20 0 0,0
13.08.2018 02:00:00 24,6 21,9 3 2 12 7 NNW 1014,3 20 0 -
13.08.2018 01:00:00 24,2 21,5 9 5 11 6 N 1015,0 20 0 0,0
13.08.2018 00:00:00 26,4 22,4 6 4 16 9 SW 1015,0 20 0 0,0
12.08.2018 23:00:00 26,9 22,5 13 7 18 10 S 1015,3 20 0 0,0
12.08.2018 22:00:00 26,9 22,9 9 5 16 9 S 1014,9 20 0 0,0
12.08.2018 21:00:00 27,0 22,8 13 7 19 11 S 1014,4 20 21 0,0
12.08.2018 20:00:00 27,9 22,8 14 8 19 10 S 1014,5 20 60 -
12.08.2018 19:00:00 28,5 23,0 14 8 21 11 S 1014,6 20 60 0,0
12.08.2018 18:00:00 29,1 22,6 13 7 23 12 S 1014,9 20 60 0,0
12.08.2018 17:00:00 29,4 22,9 19 10 22 12 S 1015,8 20 60 0,0
12.08.2018 16:00:00 30,0 22,4 16 9 22 12 S 1016,5 20 60 0,0
12.08.2018 15:00:00 30,2 22,1 16 9 21 12 S 1017,3 20 60 0,0
12.08.2018 14:00:00 30,3 22,0 8 4 18 10 SSE 1017,3 20 60 -
12.08.2018 13:00:00 30,4 22,3 9 5 16 9 SSE 1017,9 20 60 0,0
12.08.2018 12:00:00 29,7 22,1 8 5 16 8 SSE 1018,0 20 60 0,0
12.08.2018 11:00:00 29,4 22,6 6 4 13 7 SSE 1017,9 20 60 0,0
12.08.2018 10:00:00 28,5 22,5 5 3 12 6 SE 1017,7 20 58 0,0
12.08.2018 09:00:00 26,2 22,9 3 2 8 4 NE 1017,8 20 51 0,0
12.08.2018 08:00:00 23,7 21,2 6 4 8 4 N 1017,6 20 27 -
12.08.2018 07:00:00 22,9 20,6 7 4 9 5 N 1017,4 20 0 0,0
12.08.2018 06:00:00 23,0 20,5 8 4 8 5 N 1017,4 20 0 0,0
12.08.2018 05:00:00 23,5 21,0 7 4 8 5 N 1017,7 20 0 0,0
12.08.2018 04:00:00 23,7 20,9 7 4 10 5 N 1018,1 20 0 0,0
12.08.2018 03:00:00 24,0 20,9 6 4 8 5 N 1018,2 20 0 0,0
12.08.2018 02:00:00 24,2 20,5 7 4 10 5 N 1018,7 20 0 -
12.08.2018 01:00:00 26,0 21,9 6 3 9 5 S 1018,9 20 0 0,0
12.08.2018 00:00:00 26,3 21,5 5 3 10 6 ESE 1019,5 20 0 0,0
11.08.2018 23:00:00 26,5 21,3 5 3 10 5 ESE 1019,8 20 0 0,0
11.08.2018 22:00:00 26,6 21,1 4 2 9 5 E 1019,7 20 0 0,0
11.08.2018 21:00:00 27,0 21,3 5 3 10 6 E 1019,2 20 0 0,0
11.08.2018 20:00:00 28,1 21,1 6 3 12 6 E 1019,1 20 53 -
11.08.2018 19:00:00 29,5 21,4 6 3 16 9 SE 1019,6 20 60 0,0
11.08.2018 18:00:00 30,2 21,3 7 4 15 8 ESE 1020,0 20 60 0,0
11.08.2018 17:00:00 30,4 21,2 9 5 19 11 ESE 1020,3 20 60 0,0
11.08.2018 16:00:00 30,6 21,1 10 5 24 13 ESE 1020,8 20 60 0,0
11.08.2018 15:00:00 29,3 21,3 14 8 26 14 E 1021,0 20 60 0,0
11.08.2018 14:00:00 29,5 21,4 14 8 23 12 ESE 1021,3 20 60 -
11.08.2018 13:00:00 29,6 21,6 11 6 20 11 E 1021,6 20 60 0,0
11.08.2018 12:00:00 29,5 22,0 12 6 21 11 E 1021,8 20 60 0,0
11.08.2018 11:00:00 29,0 22,0 12 6 21 11 E 1021,8 20 60 0,0
11.08.2018 10:00:00 28,6 22,1 11 6 21 12 ENE 1021,8 20 60 0,0
11.08.2018 09:00:00 26,8 22,4 13 7 22 12 NE 1021,7 20 43 0,0
11.08.2018 08:00:00 24,7 22,4 10 5 14 8 N 1021,4 20 3 -
11.08.2018 07:00:00 24,6 22,5 10 5 15 8 N 1021,3 20 0 0,0
11.08.2018 06:00:00 24,9 22,7 9 5 13 7 N 1020,7 20 0 0,0
11.08.2018 05:00:00 25,1 22,8 7 4 12 6 N 1020,9 20 0 0,0
11.08.2018 04:00:00 26,0 23,5 7 4 18 10 NE 1021,0 15 0 0,0
11.08.2018 03:00:00 26,3 23,4 11 6 18 10 ENE 1021,2 20 0 0,0
11.08.2018 02:00:00 26,6 23,3 13 7 23 12 ENE 1021,8 20 0 -
11.08.2018 01:00:00 26,7 23,4 13 7 22 12 E 1022,6 20 0 0,0
11.08.2018 00:00:00 26,9 23,6 12 7 23 13 E 1022,4 19 0 0,0
10.08.2018 23:00:00 26,9 23,6 14 8 25 13 E 1022,0 18 0 0,0
10.08.2018 22:00:00 26,9 23,2 14 8 26 14 E 1021,5 18 0 0,0
10.08.2018 21:00:00 27,1 23,3 16 8 27 14 E 1020,8 17 0 0,0
10.08.2018 20:00:00 27,5 23,5 18 10 29 16 E 1020,5 17 14 -
10.08.2018 19:00:00 28,6 23,5 16 9 31 17 E 1020,2 18 59 0,0
10.08.2018 18:00:00 29,4 23,6 17 9 29 15 E 1020,4 20 60 0,0
10.08.2018 17:00:00 29,6 23,6 16 9 27 15 E 1020,6 20 60 0,0
10.08.2018 16:00:00 29,8 23,7 15 8 29 16 E 1020,9 18 59 0,0
10.08.2018 15:00:00 29,6 23,8 18 10 27 15 E 1021,2 14 60 0,0
10.08.2018 14:00:00 29,9 23,9 14 8 28 15 E 1021,3 16 32 -
10.08.2018 13:00:00 30,5 24,2 15 8 27 15 ENE 1021,2 20 57 0,0
10.08.2018 12:00:00 29,8 23,3 16 9 29 15 ENE 1020,9 20 59 0,0
10.08.2018 11:00:00 28,6 22,1 16 9 27 15 ENE 1020,6 20 57 0,0
10.08.2018 10:00:00 28,4 21,4 18 10 32 17 NE 1020,5 20 56 0,0
10.08.2018 09:00:00 26,4 20,5 14 8 25 13 NE 1019,9 20 18 0,0
10.08.2018 08:00:00 25,9 21,1 15 8 25 13 NNE 1019,4 20 0 -
10.08.2018 07:00:00 25,1 21,6 11 6 24 13 NNE 1018,7 19 0 0,0
10.08.2018 06:00:00 26,2 22,7 10 5 24 13 E 1018,4 15 0 0,0
10.08.2018 05:00:00 25,7 21,6 17 9 32 17 NE 1018,1 16 0 0,0
10.08.2018 04:00:00 25,2 20,0 19 10 39 21 ENE 1018,4 18 0 0,0
10.08.2018 03:00:00 26,1 22,1 25 13 39 21 NE 1018,9 15 0 0,0
10.08.2018 02:00:00 27,5 23,1 11 6 20 11 E 1018,0 20 0 -
10.08.2018 01:00:00 27,5 23,7 14 8 26 14 SE 1017,3 16 0 0,0
10.08.2018 00:00:00 27,6 24,2 13 7 21 11 ESE 1017,0 16 0 0,0
09.08.2018 23:00:00 27,4 24,2 6 3 14 7 SE 1016,7 13 0 0,0
09.08.2018 22:00:00 27,3 23,7 3 2 15 8 ENE 1016,6 13 0 0,0
09.08.2018 21:00:00 27,7 23,5 11 6 17 9 S 1015,7 10 0 0,0
09.08.2018 20:00:00 28,2 24,0 14 7 23 12 S 1015,2 10 1 -
09.08.2018 19:00:00 28,9 24,2 13 7 22 12 SSE 1014,5 13 54 0,0
09.08.2018 18:00:00 30,1 24,0 10 5 18 10 S 1014,5 12 60 0,0
09.08.2018 17:00:00 30,4 23,9 13 7 32 18 S 1014,7 13 38 0,0
09.08.2018 16:00:00 29,7 24,4 23 12 31 17 S 1014,3 15 37 0,0
09.08.2018 15:00:00 28,9 23,6 12 6 25 14 SSE 1014,6 12 0 0,0
09.08.2018 14:00:00 28,5 23,6 20 11 26 14 S 1015,0 16 8 -
09.08.2018 13:00:00 29,2 23,2 18 10 29 16 S 1015,1 16 26 0,0
09.08.2018 12:00:00 28,8 23,2 10 5 24 13 SSE 1014,8 12 1 0,0
09.08.2018 11:00:00 28,3 23,0 12 6 27 15 SSE 1014,2 10 13 0,0
09.08.2018 10:00:00 28,3 22,7 13 7 24 13 SSE 1014,0 15 60 0,0
09.08.2018 09:00:00 27,9 22,4 14 8 21 12 S 1014,1 17 41 0,0
09.08.2018 08:00:00 27,1 21,6 11 6 18 10 S 1013,8 14 0 -
09.08.2018 07:00:00 26,9 22,3 8 4 17 9 S 1013,5 9 0 0,0
09.08.2018 06:00:00 27,1 22,1 14 7 22 12 S 1013,3 14 0 0,0
09.08.2018 05:00:00 27,1 22,3 19 10 26 14 S 1013,0 20 0 0,0
09.08.2018 04:00:00 27,4 23,0 18 10 26 14 S 1013,2 14 0 0,0
09.08.2018 03:00:00 27,3 23,3 18 10 23 13 S 1013,4 17 0 0,0
09.08.2018 02:00:00 27,4 23,2 13 7 24 13 SSE 1013,9 14 0 -
09.08.2018 01:00:00 27,4 23,5 13 7 29 15 SSE 1014,0 14 0 0,0

tt = Température de l'air
td = dewpoint
ff = Vitesse du vent
fx = gusts
dd = Direction du vent
ppp = reduced air pressure
vv = visibility
sd = Ensoleillement
rr = Quantités de précipitations

stations d'obs. à proximité